[[[{"header":{"parameterUnit":"kt","parameterCategory":2,"dx":1,"dy":1,"la1":30.253999710083008,"la2":30.299108505249023,"lo1":-89.0895004272461,"lo2":-89.04439544677734,"nx":28,"ny":28,"refTime":"2022-10-02T21:00:00:Z","depth":"0","parameterNumber":2,"parameterNumberName":"U-component_of_CURRENTS"},"data":[0.1709,0.1694,0.1691,0.1665,0.1718,0.1781,0.1865,0.199,0.2047,0.2118,0.2173,0.2266,0.2383,0.2485,0.2456,0.2478,0.2311,0.227,0.2267,0.2608,0.2649,0.2689,0.2523,0.2292,0.2292,0.1578,0.1573,0.1569,0.1761,0.176,0.1763,0.1822,0.1863,0.1962,0.2072,0.2137,0.2188,0.2251,0.2315,0.2497,0.2675,0.288,0.3072,0.3031,0.2931,0.2992,0.2696,0.2671,0.3194,0.3039,0.2914,0.2914,0.2914,0.2914,0.2914,0.2915,0.1872,0.1862,0.183,0.1904,0.198,0.208,0.2159,0.2234,0.2261,0.2305,0.2414,0.257,0.2822,0.33,0.3418,0.349,0.3563,0.3468,0.3478,0.3328,0.3114,0.3612,0.3724,0.3726,0.3727,0.3729,0.373,0,0.2009,0.1981,0.1973,0.2036,0.2097,0.22,0.2269,0.2272,0.2356,0.2382,0.2478,0.2626,0.2992,0.3228,0.358,0.3773,0.3672,0.3909,0.3724,0.3415,0.3142,0.3052,0.3616,0.3791,0.3794,0.3795,0.3796,0.3797,0.2188,0.2101,0.2152,0.2193,0.2235,0.2276,0.231,0.2398,0.2423,0.2534,0.2541,0.2789,0.294,0.3361,0.3617,0.3934,0.3811,0.3954,0.3875,0.3626,0.3595,0.3402,0.3318,0.3821,0.3818,0.3816,0.3814,0,0.228,0.2309,0.2283,0.2327,0.235,0.2332,0.2442,0.2484,0.2507,0.2569,0.2602,0.2779,0.3023,0.327,0.3604,0.3706,0.3811,0.4006,0.3809,0.3791,0.3619,0.358,0.3532,0.3444,0.4147,0.4146,0.4146,0,0.2505,0.2465,0.2536,0.2476,0.2454,0.2473,0.2478,0.2519,0.2579,0.2623,0.2764,0.2833,0.3086,0.328,0.346,0.368,0.3754,0.3808,0.3819,0.3673,0.3649,0.3392,0.3327,0.394,0.3938,0.3936,0.3934,0,0.267,0.2686,0.2601,0.2576,0.2557,0.2558,0.2558,0.2565,0.2588,0.2711,0.272,0.2948,0.3031,0.3239,0.3415,0.3384,0.3706,0.3675,0.3744,0.3738,0.3546,0.3513,0.3629,0.3932,0.3931,0.393,0.3929,0,0.2855,0.2849,0.274,0.2768,0.2734,0.2655,0.2579,0.256,0.2637,0.2646,0.2777,0.2826,0.3043,0.3017,0.3315,0.3212,0.3348,0.3435,0.3447,0.322,0.3138,0.3199,0.3509,0.3305,0.3532,0.3528,0.3525,0,0.3008,0.2938,0.2933,0.2822,0.2748,0.2701,0.2641,0.2601,0.2585,0.2604,0.2745,0.2763,0.2793,0.2839,0.2996,0.3072,0.3253,0.3104,0.3179,0.318,0.3054,0.338,0.3234,0.3456,0.3478,0.3483,0.3486,0,0.3065,0.3067,0.3026,0.3012,0.2843,0.2754,0.2701,0.263,0.2647,0.2588,0.2639,0.2699,0.274,0.2715,0.2758,0.2888,0.3174,0.2822,0.2819,0.2911,0.3423,0.3326,0.3349,0.3166,0.3171,0.3176,0.3449,0,0.3157,0.3112,0.3088,0.2962,0.2877,0.2787,0.2687,0.263,0.2564,0.2522,0.2567,0.2516,0.2478,0.2543,0.2494,0.2692,0.2645,0.2577,0.2417,0.2657,0.2747,0.2778,0.2312,0.2306,0.23,0.2296,0,0,0.3203,0.3124,0.3063,0.3008,0.2938,0.2821,0.2736,0.2667,0.2475,0.2487,0.2408,0.2327,0.223,0.2316,0.2406,0.2344,0.2366,0.2217,0.2539,0.2567,0.2592,0.269,0.2726,0.2286,0.2284,0.2282,0.228,0,0.3182,0.3123,0.3093,0.3014,0.2915,0.2798,0.279,0.2621,0.2565,0.2438,0.2377,0.2394,0.2133,0.2139,0.2104,0.2266,0.2122,0.2243,0.2382,0.2491,0.2527,0.2557,0.2661,0.2698,0.2267,0.2268,0.2268,0,0.3174,0.3113,0.3087,0.2957,0.2869,0.2768,0.2713,0.2621,0.2552,0.236,0.2206,0.2148,0.201,0.196,0.1915,0.1833,0.1928,0.1817,0.1845,0.1769,0.1868,0.191,0.1948,0.1455,0.1453,0.1451,0,0,0.3161,0.3121,0.2993,0.294,0.2902,0.2764,0.2707,0.261,0.247,0.2398,0.2207,0.2069,0.1996,0.1908,0.1761,0.1693,0.1652,0.1727,0.1765,0.1797,0.1742,0.1847,0.1889,0.1444,0.1444,0.1444,0,0,0.3131,0.3017,0.2982,0.2912,0.2808,0.2632,0.2592,0.2523,0.2368,0.2354,0.2128,0.2063,0.1978,0.1826,0.1766,0.1727,0.1565,0.1568,0.1821,0.1865,0.1902,0.187,0.1531,0,0,0,0,0,0.3075,0.3049,0.302,0.2997,0.2799,0.2669,0.2636,0.2498,0.2478,0.2418,0.2282,0.2103,0.1785,0.1724,0.1659,0.1728,0.1354,0.137,0.1385,0.1692,0.1742,0.1784,0,0,0,0,0,0,0.3065,0.3034,0.3022,0.2859,0.2816,0.2668,0.2584,0.2541,0.2476,0.2455,0.2149,0.2094,0.1908,0.1738,0.1684,0.1756,0.1548,0.136,0.1374,0.1386,0.1709,0.175,0.1785,0,0,0,0,0,0.3057,0.3032,0.2753,0.2855,0.2818,0.2648,0.258,0.2545,0.246,0.2205,0.2148,0.2368,0.1914,0.1852,0.1704,0.1788,0.1583,0.1564,0.1369,0.138,0.1389,0.1729,0,0,0,0,0,0,0.3051,0.2955,0.2742,0.2726,0.2853,0.2649,0.261,0.2548,0.2205,0.2159,0.2412,0.2399,0.1918,0.1869,0.1823,0.1817,0.1612,0.1593,0.1581,0.1377,0.1386,0.1393,0,0,0,0,0,0,0.297,0.2942,0.2732,0.2736,0.2718,0.2651,0.2616,0.2425,0.2197,0.2421,0.2407,0.241,0.1962,0.1881,0.1844,0.1552,0.1634,0.1616,0.1603,0.1595,0.1384,0.1391,0,0,0,0,0,0,0.2956,0.2931,0.2737,0.2724,0.2707,0.2496,0.247,0.2242,0.2307,0.2433,0.2302,0.23,0.1975,0.1935,0.186,0.1585,0.156,0.1634,0.1621,0.1612,0.1606,0,0,0,0,0,0,0,0.2944,0.3144,0.2867,0.2713,0.2698,0.2585,0.2577,0.257,0.2307,0.2305,0.2302,0.2301,0.1741,0.172,0.17,0.1612,0,0,0.1636,0.1627,0,0,0,0,0,0,0,0,0.3152,0.3146,0.2866,0.2865,0.2863,0.2583,0.2577,0.2571,0.2306,0.2305,0.2303,0.2301,0.1735,0.1719,0.1702,0,0,0,0,0,0,0,0,0,0,0,0,0,0,0,0.2866,0.2865,0,0.2583,0.2578,0.2573,0.2306,0.2305,0.2303,0.2302,0.173,0.1717,0.1703,0,0,0,0,0,0,0,0,0,0,0,0,0,0,0,0,0,0,0,0,0,0,0,0,0,0,0,0,0,0,0,0,0,0,0,0,0,0,0,0,0,0,0,0,0,0,0,0,0,0,0,0,0,0,0,0,0,0,0,0,0,0,0,0,0,0,0,0,0]}],[{"header":{"parameterUnit":"kt","parameterCategory":2,"dx":1,"dy":1,"la1":30.253999710083008,"la2":30.299108505249023,"lo1":-89.0895004272461,"lo2":-89.04439544677734,"nx":28,"ny":28,"refTime":"2022-10-02T21:00:00:Z","depth":"0","parameterNumber":3,"parameterNumberName":"V-component_of_CURRENTS"},"data":[-0.1893,-0.1847,-0.1767,-0.1617,-0.1599,-0.1633,-0.1679,-0.1681,-0.155,-0.1241,-0.094,-0.072,-0.0515,-0.028,-0.0139,-0.0117,-0.0109,-0.0136,-0.015,-0.0195,-0.0209,-0.0224,-0.021,-0.0089,-0.0089,0.0053,0.0053,0.0054,-0.1904,-0.1893,-0.1787,-0.1793,-0.1762,-0.1856,-0.1913,-0.1933,-0.1803,-0.1528,-0.1276,-0.0861,-0.0568,-0.0354,-0.0196,-0.0191,-0.012,-0.0205,-0.0189,-0.0129,-0.0194,-0.0172,-0.0041,-0.0041,-0.0041,-0.0041,-0.0041,-0.0041,-0.2089,-0.2019,-0.1912,-0.187,-0.1939,-0.2003,-0.2059,-0.206,-0.1926,-0.1618,-0.1475,-0.1153,-0.0885,-0.0602,-0.0495,-0.0355,-0.0433,-0.0317,-0.0397,-0.0422,-0.034,-0.0685,-0.0358,-0.0359,-0.036,-0.0361,-0.0362,0,-0.2313,-0.2233,-0.2123,-0.2071,-0.2114,-0.2193,-0.2232,-0.2166,-0.2087,-0.19,-0.1602,-0.1442,-0.1128,-0.0873,-0.0709,-0.0593,-0.059,-0.0561,-0.0553,-0.0438,-0.0669,-0.0602,-0.0808,-0.0423,-0.0425,-0.0426,-0.0427,-0.0428,-0.2719,-0.2486,-0.2362,-0.2365,-0.2327,-0.2315,-0.2335,-0.2318,-0.2259,-0.1992,-0.1831,-0.1617,-0.1427,-0.1065,-0.0909,-0.0733,-0.0699,-0.0603,-0.0572,-0.0773,-0.0849,-0.0907,-0.0869,-0.0446,-0.0444,-0.0442,-0.0441,0,-0.2909,-0.2857,-0.2613,-0.247,-0.2481,-0.2365,-0.2433,-0.2397,-0.2256,-0.2085,-0.2012,-0.1821,-0.1576,-0.1476,-0.1092,-0.1065,-0.0775,-0.0749,-0.0898,-0.087,-0.0843,-0.0942,-0.0613,-0.0535,-0.0689,-0.0688,-0.0688,0,-0.3209,-0.3035,-0.2963,-0.278,-0.2626,-0.257,-0.2475,-0.2402,-0.2295,-0.2186,-0.2149,-0.1969,-0.1764,-0.1581,-0.1457,-0.12,-0.1057,-0.1035,-0.0995,-0.0948,-0.0964,-0.0706,-0.0774,-0.0764,-0.0764,-0.0765,-0.0765,0,-0.3401,-0.3293,-0.3042,-0.2965,-0.2778,-0.2707,-0.2672,-0.2551,-0.2493,-0.2362,-0.2252,-0.2078,-0.1928,-0.1671,-0.1548,-0.159,-0.114,-0.113,-0.1086,-0.1104,-0.0748,-0.0747,-0.0603,-0.0765,-0.0765,-0.0765,-0.0765,0,-0.3624,-0.3507,-0.3228,-0.3117,-0.305,-0.2926,-0.2703,-0.2629,-0.254,-0.2482,-0.2378,-0.2335,-0.2131,-0.212,-0.1749,-0.1867,-0.1727,-0.1592,-0.1583,-0.1363,-0.143,-0.1377,-0.1299,-0.1294,-0.1654,-0.1659,-0.1663,0,-0.3766,-0.3575,-0.3562,-0.3345,-0.3192,-0.3149,-0.3003,-0.2901,-0.2848,-0.2752,-0.2643,-0.2459,-0.2511,-0.2423,-0.2238,-0.2014,-0.188,-0.2051,-0.1482,-0.1468,-0.158,-0.1529,-0.1437,-0.1386,-0.1728,-0.1722,-0.1717,0,-0.3864,-0.38,-0.3771,-0.3686,-0.3509,-0.3421,-0.3278,-0.3144,-0.308,-0.2996,-0.286,-0.2598,-0.2618,-0.2386,-0.2311,-0.2092,-0.2016,-0.1999,-0.1974,-0.2092,-0.1576,-0.1629,-0.1592,-0.1825,-0.1813,-0.1804,-0.1768,0,-0.3879,-0.3858,-0.384,-0.3688,-0.3621,-0.3541,-0.3431,-0.3403,-0.3356,-0.3323,-0.3107,-0.2905,-0.2593,-0.2543,-0.2442,-0.2158,-0.218,-0.2015,-0.1855,-0.1838,-0.1847,-0.1809,-0.2145,-0.2137,-0.2131,-0.2125,0,0,-0.3938,-0.3896,-0.3924,-0.3848,-0.3779,-0.378,-0.3647,-0.3635,-0.351,-0.3468,-0.3465,-0.2974,-0.2718,-0.2397,-0.2445,-0.2293,-0.2177,-0.2117,-0.1873,-0.1849,-0.1823,-0.183,-0.18,-0.2114,-0.2111,-0.2109,-0.2107,0,-0.3886,-0.394,-0.3918,-0.3879,-0.3853,-0.3801,-0.3784,-0.3743,-0.3746,-0.3532,-0.3444,-0.3267,-0.2746,-0.2566,-0.2361,-0.2252,-0.1969,-0.2129,-0.2128,-0.1833,-0.1818,-0.1801,-0.1808,-0.1787,-0.2091,-0.2092,-0.2092,0,-0.3847,-0.3844,-0.386,-0.3852,-0.3856,-0.3761,-0.3848,-0.3852,-0.377,-0.3583,-0.3405,-0.3246,-0.284,-0.2567,-0.238,-0.2288,-0.18,-0.189,-0.1914,-0.1768,-0.1446,-0.1431,-0.1417,-0.16,-0.1601,-0.1601,0,0,-0.3792,-0.3812,-0.3775,-0.3829,-0.3812,-0.3824,-0.3856,-0.3857,-0.3753,-0.3729,-0.3495,-0.3185,-0.2902,-0.2676,-0.238,-0.2027,-0.1822,-0.1857,-0.1879,-0.19,-0.1772,-0.1456,-0.144,-0.1605,-0.1605,-0.1605,0,0,-0.3762,-0.373,-0.374,-0.3792,-0.3784,-0.3792,-0.3854,-0.3862,-0.3762,-0.3737,-0.3445,-0.3344,-0.3039,-0.2729,-0.2832,-0.2277,-0.2149,-0.2117,-0.2535,-0.2556,-0.2578,-0.253,-0.2571,0,0,0,0,0,-0.3661,-0.3714,-0.3721,-0.373,-0.378,-0.3771,-0.3786,-0.3863,-0.3889,-0.3912,-0.3728,-0.3477,-0.2764,-0.285,-0.2725,-0.2608,-0.1649,-0.1641,-0.1634,-0.2086,-0.2114,-0.2137,0,0,0,0,0,0,-0.3664,-0.3666,-0.3721,-0.372,-0.3735,-0.377,-0.3817,-0.3838,-0.389,-0.3901,-0.3548,-0.3465,-0.3248,-0.2883,-0.2777,-0.2674,-0.2605,-0.1646,-0.1639,-0.1633,-0.2095,-0.2118,-0.2138,0,0,0,0,0,-0.3666,-0.3668,-0.3723,-0.3724,-0.3736,-0.3832,-0.3819,-0.3837,-0.3884,-0.3548,-0.3489,-0.3943,-0.3256,-0.3142,-0.2818,-0.2732,-0.2675,-0.2637,-0.1642,-0.1636,-0.1632,-0.2106,0,0,0,0,0,0,-0.3668,-0.3696,-0.3729,-0.3739,-0.3737,-0.3835,-0.3847,-0.3835,-0.3517,-0.348,-0.3912,-0.3919,-0.3257,-0.3169,-0.3084,-0.2775,-0.2733,-0.2694,-0.267,-0.1638,-0.1634,-0.163,0,0,0,0,0,0,-0.3696,-0.3702,-0.3734,-0.3746,-0.3757,-0.3837,-0.3847,-0.3441,-0.3487,-0.3888,-0.3898,-0.3914,-0.3159,-0.3188,-0.312,-0.2506,-0.2776,-0.274,-0.2714,-0.2698,-0.1634,-0.1631,0,0,0,0,0,0,-0.3701,-0.3707,-0.3744,-0.3753,-0.3763,-0.3872,-0.3451,-0.3365,-0.3952,-0.3882,-0.3957,-0.3959,-0.3161,-0.3107,-0.3147,-0.2563,-0.2521,-0.2775,-0.275,-0.2732,-0.2721,0,0,0,0,0,0,0,-0.3706,-0.3635,-0.3675,-0.3758,-0.3767,-0.3824,-0.3827,-0.3829,-0.3952,-0.3954,-0.3956,-0.3958,-0.2987,-0.2946,-0.2905,-0.261,0,0,-0.2779,-0.2761,0,0,0,0,0,0,0,0,-0.3636,-0.3636,-0.3675,-0.3677,-0.3679,-0.3825,-0.3827,-0.3829,-0.3953,-0.3954,-0.3956,-0.3957,-0.2976,-0.2943,-0.291,0,0,0,0,0,0,0,0,0,0,0,0,0,0,0,-0.3675,-0.3677,0,-0.3825,-0.3827,-0.3828,-0.3953,-0.3954,-0.3956,-0.3957,-0.2967,-0.294,-0.2913,0,0,0,0,0,0,0,0,0,0,0,0,0,0,0,0,0,0,0,0,0,0,0,0,0,0,0,0,0,0,0,0,0,0,0,0,0,0,0,0,0,0,0,0,0,0,0,0,0,0,0,0,0,0,0,0,0,0,0,0,0,0,0,0,0,0,0,0,0]}]],[[{"header":{"parameterUnit":"kt","parameterCategory":2,"dx":1,"dy":1,"la1":30.253999710083008,"la2":30.299108505249023,"lo1":-89.0895004272461,"lo2":-89.04439544677734,"nx":28,"ny":28,"refTime":"2022-10-02T21:00:00:Z","depth":"2","parameterNumber":2,"parameterNumberName":"U-component_of_CURRENTS"},"data":[0.0826,0.0848,0.0843,0.0876,0.0961,0.102,0.1125,0.1224,0.1303,0.1212,0.1208,0.119,0.1074,0.0867,0.0775,0.0826,0.1129,0.0833,0.1109,0.1434,0.1494,0.1602,0.1459,0,0,0,0,0,0.0829,0.0871,0.0889,0.0986,0.0988,0.1123,0.1254,0.1264,0.1342,0.1456,0.1548,0.1168,0.1147,0.1214,0.1161,0.1037,0.121,0.1023,0.1251,0.131,0.1365,0.1241,0.0769,0.077,0.077,0.0771,0,0,0.0953,0.0941,0.0867,0.1017,0.1054,0.1191,0.1252,0.1368,0.1402,0.1561,0.1594,0.1669,0.1532,0.1476,0.1528,0.1581,0.167,0.1582,0.1617,0.1658,0.1533,0.1267,0.1145,0.1147,0.1149,0.1151,0.1153,0,0.1011,0.0891,0.0959,0.1078,0.112,0.1229,0.1344,0.1348,0.1414,0.1492,0.1674,0.1786,0.1916,0.1935,0.1916,0.199,0.2184,0.2026,0.2526,0.216,0.1901,0.19,0.191,0.1933,0.194,0.1945,0.1949,0.1952,0.1024,0.098,0.1064,0.1125,0.1195,0.1319,0.1327,0.1423,0.1458,0.1643,0.1701,0.1898,0.2026,0.2278,0.2358,0.2474,0.2646,0.2206,0.2173,0.2373,0.2371,0.236,0.2348,0.2027,0.2017,0.2009,0.2003,0,0.0941,0.0982,0.1059,0.1208,0.1274,0.1369,0.1469,0.1477,0.1568,0.1654,0.1704,0.192,0.2158,0.2359,0.273,0.2695,0.2861,0.2797,0.2452,0.2414,0.2415,0.2391,0.2514,0.2503,0.2494,0.2486,0.2479,0,0.0878,0.1003,0.1109,0.1164,0.13,0.1384,0.1459,0.1557,0.1637,0.1655,0.1799,0.1933,0.2261,0.246,0.2642,0.2721,0.2987,0.2689,0.2697,0.2552,0.2499,0.2884,0.2848,0.3193,0.3193,0.3193,0.3193,0,0.084,0.0973,0.1086,0.1119,0.1221,0.1319,0.1393,0.1486,0.1506,0.1661,0.1729,0.2002,0.2151,0.242,0.2596,0.2598,0.2923,0.297,0.2699,0.2668,0.2501,0.2441,0.3193,0.3193,0.3193,0.3193,0.3193,0,0.077,0.0889,0.1004,0.1132,0.1128,0.121,0.1364,0.1423,0.1501,0.1569,0.1743,0.1783,0.2074,0.2098,0.247,0.2406,0.2512,0.2603,0.261,0.2224,0.2156,0.1957,0.2156,0.2572,0.2568,0.2565,0.2562,0,0.0751,0.0872,0.0845,0.0992,0.1006,0.1021,0.1101,0.1198,0.1277,0.1428,0.1529,0.1646,0.1687,0.1824,0.207,0.2212,0.2383,0.2262,0.244,0.2439,0.2068,0.2315,0.2139,0.2119,0.2517,0.2521,0.2525,0,0.0666,0.0654,0.068,0.0721,0.0747,0.0818,0.0923,0.0985,0.1064,0.1239,0.1421,0.1554,0.1645,0.1682,0.1787,0.2017,0.2286,0.2033,0.204,0.1964,0.2627,0.2285,0.2281,0.2457,0.2465,0.2472,0.2489,0,0.0596,0.0583,0.0593,0.0619,0.068,0.071,0.072,0.0836,0.0935,0.0993,0.1169,0.1301,0.147,0.1533,0.1536,0.1804,0.1717,0.1776,0.172,0.1967,0.1931,0.196,0.1554,0.155,0.1546,0.1544,0,0,0.0511,0.0472,0.0426,0.0454,0.0495,0.048,0.0548,0.0586,0.0788,0.0862,0.0877,0.1131,0.117,0.1323,0.141,0.1459,0.1497,0.1422,0.1845,0.1878,0.1909,0.1889,0.192,0.1538,0.1536,0.1535,0.1534,0,0.046,0.0347,0.0385,0.0399,0.0429,0.0438,0.0475,0.0571,0.0627,0.082,0.0821,0.097,0.108,0.1134,0.1151,0.1403,0.1308,0.1412,0.1589,0.181,0.1848,0.1882,0.1869,0.19,0.1526,0.1526,0.1526,0,0.0362,0.0347,0.0358,0.0313,0.0338,0.0362,0.0362,0.0426,0.0519,0.0526,0.0729,0.0754,0.076,0.0893,0.0953,0.0948,0.1221,0.1122,0.1143,0.107,0.1287,0.1333,0.1373,0.0843,0.0841,0.0838,0,0,0.034,0.0354,0.0302,0.03,0.0265,0.0348,0.0391,0.0419,0.0498,0.054,0.0618,0.069,0.0703,0.0786,0.0769,0.0973,0.0959,0.1039,0.1071,0.1098,0.1041,0.1263,0.1308,0.083,0.083,0.0829,0,0,0.0354,0.0312,0.0305,0.0219,0.0272,0.032,0.0341,0.0416,0.0517,0.0528,0.052,0.0521,0.061,0.0641,0.0538,0.0758,0.0628,0.065,0.075,0.079,0.0821,0.0729,0.0352,0,0,0,0,0,0.0384,0.032,0.0314,0.03,0.0275,0.0329,0.0344,0.0351,0.0399,0.0427,0.051,0.0398,0.058,0.0486,0.0494,0.0577,0.0719,0.0738,0.0757,0.0921,0.0963,0.0999,0,0,0,0,0,0,0.0379,0.0354,0.0318,0.0342,0.034,0.0328,0.0294,0.03,0.039,0.0385,0.0404,0.0396,0.0333,0.0474,0.0483,0.0563,0.0349,0.0726,0.0743,0.0758,0.0935,0.097,0.1,0,0,0,0,0,0.0375,0.0356,0.0269,0.035,0.0347,0.0364,0.0291,0.0295,0.0387,0.0327,0.0325,0.0388,0.0336,0.0341,0.0479,0.0561,0.0342,0.0346,0.0737,0.075,0.0762,0.0952,0,0,0,0,0,0,0.0372,0.0411,0.0274,0.0281,0.0305,0.0367,0.0359,0.029,0.0324,0.0323,0.0298,0.0293,0.034,0.0343,0.0347,0.0566,0.0336,0.034,0.0342,0.0747,0.0758,0.0767,0,0,0,0,0,0,0.0422,0.0414,0.0278,0.0219,0.022,0.037,0.0361,0.0413,0.0322,0.0294,0.029,0.0295,0.0298,0.0345,0.0348,0.0435,0.0331,0.0335,0.0338,0.0339,0.0756,0.0764,0,0,0,0,0,0,0.0423,0.0417,0.0218,0.0219,0.022,0.0308,0.0419,0.0371,0.0324,0.0291,0.0313,0.0308,0.0298,0.0303,0.0348,0.0435,0.0435,0.0332,0.0334,0.0336,0.0337,0,0,0,0,0,0,0,0.0423,0.0412,0.0221,0.0219,0.0219,0.0346,0.0349,0.0352,0.0323,0.0319,0.0314,0.031,0.031,0.0314,0.0318,0.0435,0,0,0.0331,0.0333,0,0,0,0,0,0,0,0,0.0419,0.0414,0.0222,0.0223,0.0223,0.0347,0.0349,0.0352,0.0323,0.0319,0.0315,0.0312,0.0311,0.0315,0.0318,0,0,0,0,0,0,0,0,0,0,0,0,0,0,0,0.0222,0.0222,0,0.0347,0.0349,0.0351,0.0322,0.0319,0.0316,0.0313,0.0312,0.0315,0.0318,0,0,0,0,0,0,0,0,0,0,0,0,0,0,0,0,0,0,0,0,0,0,0,0,0,0,0,0,0,0,0,0,0,0,0,0,0,0,0,0,0,0,0,0,0,0,0,0,0,0,0,0,0,0,0,0,0,0,0,0,0,0,0,0,0,0,0,0,0]}],[{"header":{"parameterUnit":"kt","parameterCategory":2,"dx":1,"dy":1,"la1":30.253999710083008,"la2":30.299108505249023,"lo1":-89.0895004272461,"lo2":-89.04439544677734,"nx":28,"ny":28,"refTime":"2022-10-02T21:00:00:Z","depth":"2","parameterNumber":3,"parameterNumberName":"V-component_of_CURRENTS"},"data":[-0.0231,-0.0252,-0.0227,-0.025,-0.0281,-0.0264,-0.0366,-0.0367,-0.0368,-0.0102,0.0129,0.0381,0.0534,0.0509,0.0461,0.0432,0.0419,0.0452,0.0658,0.0437,0.0429,0.0447,0.0256,0,0,0,0,0,-0.0201,-0.0241,-0.0246,-0.0301,-0.0253,-0.0336,-0.044,-0.0394,-0.0406,-0.033,-0.0202,0.0237,0.0396,0.0547,0.058,0.0597,0.0519,0.0611,0.0434,0.0428,0.0423,0.0299,0.0483,0.0482,0.0481,0.0481,0,0,-0.0371,-0.0342,-0.0232,-0.0311,-0.0298,-0.0386,-0.0388,-0.0462,-0.0483,-0.0496,-0.0323,0.0008,0.0121,0.0566,0.0571,0.0608,0.0672,0.0629,0.0618,0.0607,0.0504,0.049,0.0736,0.0737,0.0738,0.0739,0.074,0,-0.0326,-0.0148,-0.0272,-0.032,-0.0281,-0.034,-0.0405,-0.0447,-0.0466,-0.0442,-0.0413,-0.0247,0.0072,0.0215,0.0494,0.0579,0.0383,0.0524,0.05,0.0217,0.0198,0.0141,0.011,0.0402,0.0402,0.0401,0.04,0.04,-0.0151,-0.0169,-0.0221,-0.0264,-0.0292,-0.0409,-0.0367,-0.043,-0.0475,-0.0473,-0.0481,-0.027,-0.0141,0.0121,0.0195,0.0392,0.0379,0.0486,0.0377,0.0318,0.0268,0.0231,0.0198,0.039,0.0391,0.0392,0.0393,0,0.0044,0.0023,-0.0147,-0.0288,-0.0317,-0.0446,-0.048,-0.0442,-0.0514,-0.0508,-0.0486,-0.0455,-0.0313,-0.023,-0.0064,-0.0063,0.009,0.0235,0.0138,0.0112,0.0191,0.0162,0.0536,0.0541,0.0545,0.0548,0.0551,0,0.0299,0.0113,0.0056,-0.0063,-0.0236,-0.0376,-0.0455,-0.0539,-0.0572,-0.0503,-0.0499,-0.0507,-0.05,-0.0413,-0.0389,-0.0212,-0.0233,-0.0027,-0.0038,-0.0153,-0.0161,-0.0139,-0.0149,-0.0083,-0.0086,-0.0088,-0.009,0,0.0346,0.032,0.01,0.0067,-0.0159,-0.0252,-0.0389,-0.0499,-0.0517,-0.0496,-0.0553,-0.0519,-0.055,-0.0484,-0.0472,-0.0553,-0.0284,-0.0396,-0.0155,-0.0151,-0.0034,-0.0028,-0.0093,-0.0094,-0.0095,-0.0096,-0.0097,0,0.0559,0.0414,0.0265,0.0036,-0.0001,-0.0076,-0.0451,-0.0488,-0.0463,-0.0562,-0.0612,-0.0597,-0.0589,-0.0691,-0.059,-0.0733,-0.0633,-0.057,-0.056,-0.0334,-0.0453,-0.0337,-0.0248,-0.049,-0.0495,-0.0499,-0.0502,0,0.0476,0.044,0.0427,0.024,0.0086,-0.0015,-0.0155,-0.0241,-0.0425,-0.0606,-0.051,-0.0592,-0.0704,-0.0843,-0.084,-0.0834,-0.0725,-0.0883,-0.0573,-0.0557,-0.0591,-0.0518,-0.0608,-0.0316,-0.0554,-0.0549,-0.0545,0,0.0429,0.0411,0.042,0.0315,0.0207,0.0122,-0.0048,-0.0151,-0.0203,-0.0513,-0.0644,-0.0692,-0.0836,-0.0753,-0.0848,-0.0812,-0.0806,-0.0859,-0.085,-0.0797,-0.0638,-0.0595,-0.0556,-0.0928,-0.0923,-0.0919,-0.0586,0,0.0374,0.0343,0.0368,0.0309,0.0204,0.0229,0.0154,-0.0094,-0.0367,-0.0412,-0.0567,-0.0826,-0.0965,-0.0938,-0.0982,-0.0867,-0.0829,-0.087,-0.0857,-0.0845,-0.0695,-0.0665,-0.0948,-0.0942,-0.0938,-0.0934,0,0,0.0309,0.0293,0.0268,0.0335,0.0281,0.0225,0.0175,0.0119,-0.0256,-0.0352,-0.0555,-0.0865,-0.0943,-0.0849,-0.0897,-0.0969,-0.0902,-0.0896,-0.0843,-0.0835,-0.0826,-0.0687,-0.0662,-0.0926,-0.0925,-0.0923,-0.0922,0,0.0312,0.0257,0.0256,0.0292,0.0343,0.0241,0.0248,0.0052,-0.0072,-0.0419,-0.0539,-0.0718,-0.0971,-0.0941,-0.0871,-0.0951,-0.0784,-0.0861,-0.0872,-0.0813,-0.0812,-0.0808,-0.0673,-0.0654,-0.0911,-0.0911,-0.0912,0,0.0294,0.032,0.0288,0.0321,0.0274,0.0247,0.0225,0.0235,0.0156,-0.0105,-0.0599,-0.0712,-0.0635,-0.0797,-0.0843,-0.0832,-0.0748,-0.0823,-0.0838,-0.0681,-0.0608,-0.0606,-0.0603,-0.0646,-0.0647,-0.0648,0,0,0.032,0.0288,0.0346,0.0336,0.035,0.026,0.0233,0.0204,0.0017,-0.0116,-0.0456,-0.0602,-0.059,-0.0708,-0.076,-0.0941,-0.0795,-0.0811,-0.0823,-0.0835,-0.0691,-0.0617,-0.0613,-0.0652,-0.0652,-0.0652,0,0,0.0337,0.0365,0.0312,0.0329,0.0339,0.0296,0.0254,0.0173,-0.0129,-0.0199,-0.0391,-0.045,-0.0616,-0.0613,-0.0677,-0.0639,-0.0549,-0.0549,-0.0775,-0.079,-0.0801,-0.0624,-0.0546,0,0,0,0,0,0.0372,0.0387,0.0339,0.0349,0.0277,0.032,0.0293,0.0201,0.0083,0.0041,-0.0296,-0.0203,-0.0629,-0.0697,-0.0735,-0.0657,-0.0704,-0.0695,-0.0686,-0.1005,-0.1019,-0.1032,0,0,0,0,0,0,0.0377,0.0385,0.0343,0.032,0.031,0.0312,0.0206,0.0169,0.0088,0.0067,-0.0176,-0.0208,-0.0299,-0.0671,-0.0707,-0.063,-0.0534,-0.07,-0.0693,-0.0686,-0.101,-0.1022,-0.1032,0,0,0,0,0,0.0381,0.0389,0.0314,0.0312,0.0302,0.022,0.0201,0.0171,0.0016,-0.0061,-0.0104,-0.0031,-0.0296,-0.0337,-0.0692,-0.0611,-0.0508,-0.0522,-0.0695,-0.0689,-0.0684,-0.1016,0,0,0,0,0,0,0.0385,0.0237,0.0306,0.0299,0.0337,0.0212,0.0189,0.0173,-0.012,-0.0147,0.0088,0.0077,-0.0295,-0.0327,-0.0358,-0.0601,-0.0488,-0.0502,-0.051,-0.0691,-0.0686,-0.0681,0,0,0,0,0,0,0.024,0.023,0.0299,0.0334,0.0326,0.0206,0.0187,0.0049,-0.0125,0.0027,0.0021,0.0088,-0.0205,-0.032,-0.0344,-0.0564,-0.0472,-0.0485,-0.0494,-0.05,-0.0687,-0.0683,0,0,0,0,0,0,0.0233,0.0224,0.0329,0.0324,0.0316,0.0174,0.0071,-0.0014,-0.0041,0.0033,-0.004,-0.0039,-0.0191,-0.0223,-0.0335,-0.0543,-0.0558,-0.0472,-0.0481,-0.0488,-0.0492,0,0,0,0,0,0,0,0.0227,0.0325,0.0427,0.0316,0.0308,0.0247,0.0237,0.0228,-0.0041,-0.004,-0.004,-0.004,-0.0396,-0.0411,-0.0426,-0.0526,0,0,-0.0471,-0.0478,0,0,0,0,0,0,0,0,0.0325,0.0325,0.0427,0.043,0.0433,0.0245,0.0238,0.023,-0.0041,-0.004,-0.004,-0.004,-0.04,-0.0412,-0.0424,0,0,0,0,0,0,0,0,0,0,0,0,0,0,0,0.0428,0.043,0,0.0244,0.0238,0.0231,-0.0041,-0.004,-0.004,-0.004,-0.0404,-0.0413,-0.0423,0,0,0,0,0,0,0,0,0,0,0,0,0,0,0,0,0,0,0,0,0,0,0,0,0,0,0,0,0,0,0,0,0,0,0,0,0,0,0,0,0,0,0,0,0,0,0,0,0,0,0,0,0,0,0,0,0,0,0,0,0,0,0,0,0,0,0,0,0]}]],[[{"header":{"parameterUnit":"kt","parameterCategory":2,"dx":1,"dy":1,"la1":30.253999710083008,"la2":30.299108505249023,"lo1":-89.0895004272461,"lo2":-89.04439544677734,"nx":28,"ny":28,"refTime":"2022-10-02T21:00:00:Z","depth":"4","parameterNumber":2,"parameterNumberName":"U-component_of_CURRENTS"},"data":[-0.137,-0.1354,-0.15,-0.1254,-0.1197,-0.1083,-0.1109,-0.1199,-0.108,-0.1212,-0.1189,-0.1308,-0.13,-0.1388,-0.1302,-0.1323,-0.171,-0.1517,-0.1513,-0.2298,-0.2354,-0.2403,-0.2252,0,0,0,0,0,-0.1641,-0.1623,-0.1655,-0.1691,-0.1663,-0.1684,-0.164,-0.1752,-0.183,-0.1439,-0.1721,-0.142,-0.1387,-0.1461,-0.1347,-0.1587,-0.1937,-0.1456,-0.2119,-0.2333,-0.2394,-0.2227,0,0,0,0,0,0,-0.1925,-0.1986,-0.2103,-0.2167,-0.2133,-0.1997,-0.2167,-0.1895,-0.1974,-0.2092,-0.1832,-0.1902,-0.2012,-0.1972,-0.1834,-0.1834,-0.1901,-0.2019,-0.2093,-0.2154,-0.1963,-0.1669,-0.1218,0,0,0,0,0,-0.2054,-0.2318,-0.2448,-0.2496,-0.2507,-0.2587,-0.2509,-0.2525,-0.2575,-0.2842,-0.251,-0.2513,-0.23,-0.234,-0.2301,-0.2228,-0.2917,-0.2654,-0.2692,-0.2852,-0.2692,-0.2671,-0.2694,-0.2627,-0.2634,-0.2639,-0.2642,0,-0.2105,-0.2283,-0.2699,-0.2724,-0.2849,-0.3045,-0.2994,-0.3278,-0.3152,-0.33,-0.3071,-0.3116,-0.3045,-0.278,-0.2903,-0.2853,-0.2774,-0.281,-0.298,-0.279,-0.2753,-0.2762,-0.2767,-0.2692,-0.2688,-0.2684,-0.268,0,-0.2085,-0.2297,-0.2615,-0.2917,-0.2996,-0.3151,-0.3391,-0.3392,-0.3652,-0.3581,-0.3588,-0.3697,-0.3504,-0.3616,-0.3621,-0.3522,-0.3386,-0.3182,-0.3553,-0.3529,-0.2864,-0.2849,-0.2773,-0.2755,-0.2739,-0.2727,-0.2716,0,-0.2063,-0.2322,-0.2587,-0.2719,-0.2957,-0.3148,-0.3405,-0.3517,-0.3683,-0.3611,-0.3832,-0.3732,-0.3957,-0.3902,-0.3838,-0.3531,-0.3836,-0.3345,-0.3294,-0.3781,-0.3765,-0.3769,-0.3749,-0.3944,-0.3945,-0.3945,-0.3945,0,-0.202,-0.2317,-0.2572,-0.266,-0.296,-0.3115,-0.3251,-0.3437,-0.3535,-0.3691,-0.3715,-0.3866,-0.39,-0.393,-0.3764,-0.3797,-0.3781,-0.3886,-0.3362,-0.3323,-0.3762,-0.3742,-0.3945,-0.3945,-0.3945,-0.3946,-0.3946,0,-0.199,-0.2101,-0.2417,-0.2693,-0.2768,-0.2973,-0.323,-0.3393,-0.353,-0.3536,-0.3591,-0.3596,-0.3739,-0.3615,-0.3733,-0.3668,-0.3616,-0.3607,-0.3608,-0.3121,-0.3012,-0.3363,-0.3528,-0.3525,-0.3523,-0.3521,-0.3519,0,-0.1814,-0.2068,-0.2175,-0.2496,-0.2613,-0.2711,-0.2901,-0.3047,-0.3098,-0.3273,-0.3255,-0.3389,-0.3281,-0.3337,-0.341,-0.3492,-0.352,-0.3457,-0.3489,-0.3489,-0.3009,-0.3052,-0.3516,-0.3487,-0.3491,-0.3494,-0.3496,0,-0.1663,-0.1884,-0.1936,-0.2052,-0.2224,-0.2343,-0.2562,-0.2702,-0.2831,-0.2932,-0.3072,-0.3189,-0.3184,-0.3235,-0.3292,-0.3364,-0.3462,-0.3275,-0.3279,-0.3233,-0.3583,-0.3072,-0.3041,-0.3489,-0.3494,-0.3499,-0.3473,0,-0.1651,-0.1749,-0.1814,-0.197,-0.2061,-0.2188,-0.2295,-0.2452,-0.2497,-0.2537,-0.2724,-0.2887,-0.3028,-0.303,-0.3033,-0.3214,-0.3113,-0.314,-0.3094,-0.3214,-0.3175,-0.3193,-0.2957,-0.2956,-0.2954,-0.2953,0,0,-0.1464,-0.1572,-0.1543,-0.1654,-0.1716,-0.1744,-0.1907,-0.1996,-0.2265,-0.2334,-0.2309,-0.26,-0.2722,-0.2926,-0.2955,-0.3025,-0.2999,-0.2935,-0.3142,-0.3163,-0.3183,-0.3154,-0.3172,-0.2951,-0.295,-0.295,-0.2949,0,-0.1453,-0.1413,-0.1502,-0.1547,-0.1621,-0.1675,-0.1719,-0.1864,-0.1948,-0.2187,-0.2283,-0.2451,-0.2633,-0.2764,-0.2799,-0.2994,-0.2902,-0.2937,-0.3007,-0.3126,-0.3149,-0.3169,-0.3145,-0.3163,-0.2946,-0.2946,-0.2946,0,-0.1338,-0.1339,-0.1363,-0.1396,-0.1446,-0.157,-0.1491,-0.1606,-0.1747,-0.1827,-0.2168,-0.2243,-0.2332,-0.2543,-0.2647,-0.2617,-0.2837,-0.278,-0.2789,-0.2794,-0.2915,-0.2941,-0.2964,-0.2666,-0.2665,-0.2664,0,0,-0.1311,-0.1344,-0.1353,-0.1391,-0.1412,-0.146,-0.1488,-0.155,-0.1708,-0.1793,-0.1979,-0.2148,-0.226,-0.2384,-0.2529,-0.2738,-0.2747,-0.2746,-0.2759,-0.277,-0.2781,-0.2904,-0.2929,-0.2661,-0.2661,-0.266,0,0,-0.1322,-0.1332,-0.1326,-0.1347,-0.1395,-0.1445,-0.1487,-0.1511,-0.1716,-0.179,-0.1897,-0.1959,-0.2206,-0.2268,-0.2217,-0.2446,-0.2388,-0.2407,-0.2419,-0.2437,-0.245,-0.2425,-0.2146,0,0,0,0,0,-0.1306,-0.1322,-0.1314,-0.1315,-0.1362,-0.1433,-0.1444,-0.1478,-0.1496,-0.1557,-0.1778,-0.175,-0.2255,-0.2215,-0.2263,-0.2279,-0.2614,-0.2622,-0.263,-0.2695,-0.2712,-0.2727,0,0,0,0,0,0,-0.1307,-0.1312,-0.1312,-0.1352,-0.136,-0.1432,-0.1421,-0.1434,-0.1492,-0.1502,-0.1715,-0.1754,-0.1836,-0.219,-0.2234,-0.2246,-0.2132,-0.2617,-0.2624,-0.2631,-0.2701,-0.2715,-0.2727,0,0,0,0,0,-0.1307,-0.1311,-0.1379,-0.1353,-0.1361,-0.1396,-0.1423,-0.1434,-0.1519,-0.1636,-0.1675,-0.1544,-0.1832,-0.1883,-0.2216,-0.2224,-0.2101,-0.2118,-0.2622,-0.2627,-0.2632,-0.2708,0,0,0,0,0,0,-0.1307,-0.1353,-0.1382,-0.1384,-0.1352,-0.1397,-0.1409,-0.1433,-0.1658,-0.1685,-0.1468,-0.1473,-0.183,-0.187,-0.1908,-0.2211,-0.2076,-0.2093,-0.2104,-0.2626,-0.263,-0.2634,0,0,0,0,0,0,-0.1349,-0.1356,-0.1384,-0.1381,-0.1385,-0.1398,-0.1408,-0.1577,-0.1669,-0.1486,-0.149,-0.1469,-0.1828,-0.1861,-0.1891,-0.2148,-0.2058,-0.2073,-0.2085,-0.2091,-0.263,-0.2633,0,0,0,0,0,0,-0.1352,-0.1359,-0.1383,-0.1385,-0.1389,-0.1435,-0.1559,-0.1653,-0.1511,-0.1484,-0.1512,-0.1513,-0.1821,-0.185,-0.1879,-0.2121,-0.2141,-0.2058,-0.2069,-0.2077,-0.2082,0,0,0,0,0,0,0,-0.1355,-0.1308,-0.1343,-0.1388,-0.1392,-0.1401,-0.1404,-0.1407,-0.1511,-0.1512,-0.1512,-0.1513,-0.1967,-0.1984,-0.2002,-0.2099,0,0,-0.2056,-0.2064,0,0,0,0,0,0,0,0,-0.1305,-0.1307,-0.1343,-0.1342,-0.1342,-0.1401,-0.1404,-0.1406,-0.1511,-0.1512,-0.1512,-0.1513,-0.1971,-0.1986,-0.2,0,0,0,0,0,0,0,0,0,0,0,0,0,0,0,-0.1343,-0.1342,0,-0.1402,-0.1404,-0.1406,-0.1511,-0.1512,-0.1512,-0.1512,-0.1975,-0.1987,-0.1999,0,0,0,0,0,0,0,0,0,0,0,0,0,0,0,0,0,0,0,0,0,0,0,0,0,0,0,0,0,0,0,0,0,0,0,0,0,0,0,0,0,0,0,0,0,0,0,0,0,0,0,0,0,0,0,0,0,0,0,0,0,0,0,0,0,0,0,0,0]}],[{"header":{"parameterUnit":"kt","parameterCategory":2,"dx":1,"dy":1,"la1":30.253999710083008,"la2":30.299108505249023,"lo1":-89.0895004272461,"lo2":-89.04439544677734,"nx":28,"ny":28,"refTime":"2022-10-02T21:00:00:Z","depth":"4","parameterNumber":3,"parameterNumberName":"V-component_of_CURRENTS"},"data":[0.0094,0.0149,0.0172,0.0253,0.0339,0.0227,0.0088,-0.0075,-0.0083,-0.0202,-0.0141,-0.0207,-0.0093,-0.0184,0.0009,0.0016,0.0301,0.0027,0.003,0.0504,0.0524,0.0541,0.0381,0,0,0,0,0,0.005,0.0164,0.0139,0.017,0.0102,0.0103,-0.0141,-0.0251,-0.0399,-0.0417,-0.0367,-0.0361,-0.0232,-0.0232,-0.0083,-0.0168,0.0206,0.0002,0.0408,0.0516,0.0538,0.0375,0,0,0,0,0,0,0.0031,0.0034,0.0113,0.0129,0.0056,-0.0028,-0.0151,-0.0203,-0.0286,-0.0346,-0.0418,-0.0365,-0.035,-0.02,-0.0101,0.0055,0.0193,0.0354,0.0383,0.0405,0.0249,0.0177,0.0036,0,0,0,0,0,0.0061,0.0144,0.0077,0.0118,0.0085,-0.0063,-0.01,-0.017,-0.0223,-0.0276,-0.0319,-0.0264,-0.0269,-0.009,0.0036,0.0233,0.0504,0.0484,0.0503,0.0636,0.0613,0.0653,0.0663,0.0622,0.0625,0.0626,0.0627,0,0.0206,0.0175,0.0135,0.0123,0.0141,0.0091,0.004,0.0002,-0.0044,-0.0127,-0.019,-0.018,-0.0154,-0.0012,0.0139,0.0408,0.044,0.0537,0.0677,0.0648,0.0682,0.0687,0.0691,0.0645,0.0644,0.0642,0.0641,0,0.0293,0.0311,0.0185,0.0151,0.0135,0.0097,0.0046,-0.0003,0.0068,-0.0011,0.0014,0.0033,0.0097,0.0238,0.0429,0.0531,0.064,0.0641,0.076,0.0799,0.0725,0.0721,0.0674,0.0668,0.0662,0.0658,0.0654,0,0.0408,0.0331,0.0348,0.0282,0.0182,0.0156,0.011,0.0117,0.0141,0.0072,0.0208,0.0139,0.0377,0.0405,0.0589,0.065,0.0728,0.0761,0.0787,0.0948,0.0946,0.0955,0.0953,0.0959,0.0958,0.0957,0.0956,0,0.051,0.0425,0.0361,0.0311,0.0192,0.0198,0.0192,0.0205,0.0169,0.0251,0.026,0.0327,0.038,0.0523,0.0648,0.0717,0.0755,0.0877,0.0806,0.0799,0.0949,0.0949,0.0955,0.0955,0.0955,0.0954,0.0954,0,0.0583,0.0515,0.0448,0.0273,0.0247,0.0258,0.0191,0.0197,0.0239,0.0311,0.0373,0.0443,0.0463,0.0579,0.0686,0.0672,0.0792,0.0856,0.0863,0.0671,0.0724,0.0992,0.0991,0.099,0.099,0.0989,0.0989,0,0.0622,0.0542,0.0531,0.0442,0.0344,0.0377,0.0351,0.0372,0.0453,0.0513,0.0539,0.0575,0.0665,0.0702,0.072,0.0785,0.0816,0.0777,0.0912,0.0916,0.075,0.0698,0.0844,0.0981,0.0982,0.0983,0.0983,0,0.0633,0.0552,0.0584,0.0502,0.0518,0.047,0.0494,0.0484,0.0478,0.0688,0.0667,0.0667,0.0796,0.0731,0.074,0.0746,0.0812,0.082,0.0822,0.0883,0.0912,0.0718,0.0705,0.0847,0.0846,0.0846,0.0978,0,0.0619,0.0593,0.0576,0.0554,0.0527,0.0538,0.0554,0.065,0.0765,0.0813,0.0864,0.0961,0.0964,0.0934,0.092,0.0842,0.089,0.0903,0.0893,0.0875,0.0939,0.0943,0.0898,0.0898,0.0898,0.0898,0,0,0.0669,0.0618,0.0608,0.0581,0.0557,0.0642,0.062,0.0642,0.0822,0.0854,0.0979,0.1033,0.106,0.0902,0.0909,0.0944,0.0986,0.0875,0.0882,0.088,0.0878,0.0938,0.0942,0.0899,0.0899,0.0899,0.0899,0,0.0663,0.0631,0.0611,0.0594,0.0629,0.0631,0.0653,0.0743,0.0786,0.0917,0.0959,0.1033,0.1082,0.1024,0.0957,0.096,0.0951,0.0927,0.0856,0.0884,0.0881,0.088,0.0938,0.0941,0.0899,0.0899,0.0899,0,0.068,0.0663,0.0647,0.0613,0.0618,0.06,0.0634,0.0674,0.0679,0.0792,0.0939,0.1002,0.0941,0.0967,0.0987,0.0974,0.0944,0.0933,0.0931,0.0898,0.0925,0.0923,0.092,0.0954,0.0954,0.0954,0,0,0.0688,0.0656,0.0642,0.0614,0.0611,0.0626,0.0628,0.0674,0.074,0.0778,0.0899,0.0957,0.0923,0.0955,0.0993,0.1013,0.103,0.094,0.0937,0.0935,0.0901,0.0928,0.0925,0.0955,0.0955,0.0955,0,0,0.0697,0.0665,0.0683,0.0629,0.0635,0.062,0.0617,0.0645,0.073,0.0798,0.0837,0.0865,0.0945,0.0947,0.0964,0.0909,0.0917,0.0917,0.0906,0.0903,0.0901,0.0853,0.0905,0,0,0,0,0,0.0711,0.0665,0.068,0.0673,0.0629,0.0607,0.0604,0.0627,0.0671,0.0667,0.0801,0.0767,0.0951,0.0969,0.098,0.0899,0.0966,0.0964,0.0962,0.0954,0.0951,0.0948,0,0,0,0,0,0,0.0709,0.0697,0.0682,0.066,0.0652,0.0607,0.0638,0.0641,0.0672,0.068,0.0749,0.0766,0.0791,0.0961,0.0971,0.0892,0.0901,0.0965,0.0963,0.0962,0.0953,0.0951,0.0948,0,0,0,0,0,0.0706,0.0697,0.0619,0.0662,0.0654,0.0674,0.064,0.0644,0.0672,0.0717,0.0734,0.07,0.0787,0.0805,0.0967,0.0886,0.0893,0.0898,0.0964,0.0963,0.0961,0.0952,0,0,0,0,0,0,0.0705,0.0689,0.0619,0.0618,0.0693,0.0679,0.0675,0.0646,0.0711,0.0724,0.0668,0.0673,0.0784,0.0798,0.0811,0.0881,0.0887,0.0891,0.0894,0.0963,0.0962,0.0961,0,0,0,0,0,0,0.0696,0.0688,0.0618,0.0656,0.0659,0.0683,0.068,0.0714,0.0715,0.0658,0.0663,0.0671,0.0815,0.0793,0.0804,0.0851,0.0882,0.0886,0.0889,0.0891,0.0962,0.0961,0,0,0,0,0,0,0.0693,0.0687,0.0656,0.0658,0.0662,0.0651,0.0719,0.0698,0.0664,0.0657,0.0672,0.0676,0.0812,0.082,0.0798,0.084,0.0848,0.0882,0.0885,0.0887,0.0888,0,0,0,0,0,0,0,0.0691,0.0726,0.0631,0.066,0.0663,0.0615,0.0614,0.0613,0.0664,0.0668,0.0671,0.0674,0.0859,0.0864,0.0868,0.0831,0,0,0.0882,0.0884,0,0,0,0,0,0,0,0,0.073,0.0727,0.0631,0.0631,0.0632,0.0615,0.0614,0.0613,0.0665,0.0668,0.067,0.0673,0.0861,0.0864,0.0868,0,0,0,0,0,0,0,0,0,0,0,0,0,0,0,0.0631,0.0631,0,0.0614,0.0614,0.0613,0.0665,0.0667,0.067,0.0672,0.0862,0.0864,0.0867,0,0,0,0,0,0,0,0,0,0,0,0,0,0,0,0,0,0,0,0,0,0,0,0,0,0,0,0,0,0,0,0,0,0,0,0,0,0,0,0,0,0,0,0,0,0,0,0,0,0,0,0,0,0,0,0,0,0,0,0,0,0,0,0,0,0,0,0,0]}]]]